Tracking 19192 objects as of 19-Jun-2018
HD Live streaming from Space Station
objects crossing your sky now

FENGYUN 1C DEB

Track FENGYUN 1C DEB now!
10-day predictions


NORAD ID: 33623
Int'l Code: 1999-025DDG
Perigee: 823.8 km
Apogee: 943.0 km
Inclination: 98.2 °
Period: 102.5 minutes
Semi major axis: 7254 km
RCS: 0.0124 m2 (small)
Launch date: May 10, 1999
Source: People's Republic of China (PRC)
Launch site: Taiyaun Space Center, China (TSC)

Note: This is SATELLITE DEBRIS
aabbcc
Your satellite tracking list
Your tracking list is empty




NASA's NSSDC Master Catalog

Two Line Element Set (TLE):
1 33623U 99025DDG 18162.66764965  .00000681  00000-0  43316-3 0  9994
2 33623  98.1891 114.8092 0082191 288.8622  70.3649 14.05078293537505
Source of the keplerian elements: AFSPC